Wind_Speed
21 21 21 21 21 21 21 22 22 23 24 25 26 27 28 30 31 32 33 34 35 36 36 36 36 36 36 36 35 35 36 36 36 36 36 35 35 35 35 34 33 33 32
24 24 24 24 24 23 24 24 25 25 26 27 28 29 30 32 33 34 35 36 37 38 38 38 37 37 37 37 37 37 37 37 37 37 37 36 36 36 36 35 35 34 33
27 27 27 27 27 26 26 27 27 28 29 30 31 31 32 33 35 36 37 38 39 39 39 39 39 38 38 38 38 38 38 38 38 38 37 37 36 36 36 36 36 36 35
30 30 30 30 29 29 29 30 30 31 32 32 33 34 35 36 37 38 39 40 41 40 40 40 40 39 39 39 39 39 39 38 38 38 38 38 37 37 38 38 38 38 37
33 33 33 33 32 32 32 33 33 34 34 35 36 36 37 38 39 40 41 42 42 41 41 41 41 40 40 40 40 39 38 38 38 39 39 39 39 39 39 40 40 40 40
36 36 36 36 35 35 35 36 36 36 36 37 38 39 40 40 41 42 42 43 43 42 42 42 42 41 41 40 40 39 39 39 40 40 40 40 40 40 41 40 41 41 41
39 39 38 38 38 38 38 38 38 38 39 40 41 41 41 42 42 43 43 44 43 43 42 42 42 42 41 41 40 40 40 40 40 41 40 41 41 42 41 41 41 42 43
42 42 41 41 40 40 40 40 41 41 41 42 43 44 43 42 42 43 44 44 44 43 43 43 43 42 42 41 41 41 40 40 41 41 40 41 41 41 42 42 43 43 43
44 44 43 43 42 42 42 42 43 43 43 44 45 46 45 44 43 42 42 43 43 44 44 43 43 42 42 42 41 41 41 41 41 40 40 41 41 41 41 42 43 43 43
46 46 45 45 44 44 44 44 44 45 45 45 45 45 46 46 46 44 42 42 43 43 43 42 42 42 42 42 41 41 41 41 40 39 40 39 39 39 40 40 41 41 41
48 48 47 46 46 45 45 45 46 46 46 46 46 46 46 46 46 45 44 43 42 43 42 42 42 42 41 41 41 40 40 39 39 39 38 37 38 38 38 38 38 38 38
50 49 48 48 47 47 47 47 47 47 47 47 47 47 46 46 45 45 44 43 43 42 42 42 42 42 41 41 40 39 38 38 38 38 37 37 37 36 36 35 35 35 35
51 50 49 49 49 49 48 48 48 48 48 47 47 46 46 45 45 44 43 43 42 41 41 41 41 41 40 40 39 38 38 37 37 36 35 35 35 34 34 33 34 34 34
51 50 50 50 49 49 48 48 49 48 48 47 46 46 45 45 44 43 42 41 41 41 40 40 40 40 39 39 38 37 36 36 35 35 34 34 33 32 31 31 32 32 33
51 50 50 49 49 49 49 49 48 48 47 46 45 45 44 43 43 42 41 41 40 40 39 39 39 38 38 38 37 37 36 35 34 34 33 32 31 31 30 30 30 30 30
50 49 49 49 48 48 48 48 48 47 46 45 44 43 42 42 41 40 40 40 39 39 38 38 37 37 37 37 36 36 35 35 34 33 32 32 31 32 32 31 30 29 29
49 48 48 48 47 47 46 46 45 45 45 43 42 42 41 40 39 39 39 38 38 38 37 36 37 36 36 36 36 35 35 34 33 33 32 32 32 33 32 31 31 31 31
47 46 46 46 45 44 44 44 44 43 42 42 41 40 39 39 38 38 37 37 37 36 36 36 36 36 36 35 35 35 34 33 33 33 33 33 33 33 32 33 32 32 32
47 46 46 45 45 44 44 43 42 41 41 40 39 39 38 37 37 37 36 36 36 35 35 35 35 35 35 35 35 34 34 34 33 33 33 33 33 33 34 34 34 35 35
46 45 44 44 44 44 43 42 41 39 39 38 38 37 36 36 36 35 35 34 34 34 34 34 34 34 34 34 34 34 34 34 34 35 35 34 35 35 36 36 37 37 38
44 44 43 42 41 40 40 39 38 38 37 37 36 36 35 35 34 33 33 33 33 33 33 33 33 34 34 34 34 35 35 36 36 36 36 36 36 37 38 38 39 40 41
41 41 41 40 39 39 38 38 37 36 36 35 34 34 33 33 32 32 32 32 32 32 32 33 33 34 34 35 35 36 36 37 37 38 38 38 39 40 40 40 41 42 42
38 38 37 37 37 36 36 36 35 34 34 33 33 32 32 31 31 31 31 31 31 32 32 33 34 34 35 36 36 37 37 38 39 39 40 41 41 42 43 43 43 43 43
35 35 35 35 34 34 34 33 33 33 32 32 31 31 30 30 30 30 30 31 31 31 32 33 34 35 36 37 37 38 39 40 40 41 42 42 43 44 44 45 44 44 44
33 33 33 32 32 32 32 32 31 31 31 31 30 30 29 30 30 30 30 30 31 32 33 34 35 36 37 37 38 39 40 41 42 43 43 44 45 45 46 46 45 45 45
31 31 31 31 30 30 30 30 30 30 30 29 29 29 29 29 29 30 30 31 32 33 34 35 36 37 37 38 39 40 41 42 43 44 44 45 46 46 46 47 47 46 45
Wind_Direction
269 272 276 279 283 286 289 291 294 296 297 299 301 303 304 305 305 306 306 307 307 307 306 306 306 306 305 305 305 304 303 302 301 300 298 296 294 293 291 288 286 284 281
269 272 275 278 281 284 286 289 291 293 294 296 298 300 302 303 303 304 304 305 305 305 305 305 305 304 304 304 303 303 302 302 300 298 297 295 294 292 290 288 285 282 280
269 272 274 277 279 282 285 287 288 290 292 294 296 298 300 301 301 302 303 303 304 304 303 304 304 303 303 303 303 302 301 300 300 298 297 294 293 291 289 287 285 282 279
269 271 274 277 279 281 283 286 287 289 291 293 295 297 299 300 300 301 302 302 303 303 302 303 303 303 303 302 301 300 300 299 298 297 296 294 292 291 288 286 283 281 279
269 271 274 276 279 281 282 284 286 288 290 292 294 296 297 299 300 301 301 302 302 301 301 302 302 302 302 301 300 300 299 298 297 296 295 293 292 290 288 285 282 280 278
269 271 274 276 278 280 282 284 285 287 289 291 292 294 296 297 298 299 300 301 300 300 300 301 301 301 300 300 300 299 298 297 296 296 294 292 291 290 287 285 282 279 277
268 270 273 275 277 279 281 283 284 286 288 289 291 293 295 296 297 298 299 299 299 299 299 300 300 300 299 299 299 298 298 297 296 296 294 292 290 288 286 284 282 279 276
267 269 272 274 277 278 280 281 283 285 287 289 291 292 293 295 296 297 298 298 298 298 298 299 299 298 299 299 299 298 298 297 296 295 295 294 292 289 285 284 283 280 276
266 269 271 273 275 277 279 281 282 284 287 289 290 292 293 294 294 294 295 296 296 296 297 298 297 298 298 298 298 298 297 297 296 295 294 294 293 291 285 283 282 279 276
266 268 270 272 274 276 278 280 281 284 286 288 289 290 292 293 294 295 294 293 294 295 295 295 295 296 297 298 298 298 297 297 296 296 295 294 293 292 288 284 283 280 276
265 267 269 271 273 275 277 279 281 283 285 287 288 290 291 292 293 294 294 293 293 293 293 294 295 295 296 297 298 298 298 297 296 296 295 294 293 292 292 286 286 283 277
264 266 268 270 272 274 275 278 280 282 284 286 288 289 290 291 292 292 293 293 293 292 293 294 294 296 297 297 298 298 298 298 297 297 295 294 295 293 292 288 285 283 279
264 266 267 269 271 273 275 277 279 281 284 285 287 288 289 290 290 291 292 292 292 292 292 293 294 296 297 298 298 298 298 298 298 298 297 295 295 294 291 288 284 284 281
265 266 268 269 271 273 274 277 279 281 283 285 286 287 287 288 289 290 290 291 291 292 292 293 295 296 297 298 298 298 298 299 299 299 298 296 295 295 293 290 287 286 282
265 267 268 269 271 272 274 276 278 280 282 283 284 286 286 287 288 288 289 290 291 291 292 293 294 295 296 297 297 298 298 299 299 299 298 297 295 295 295 293 290 288 284
266 267 268 270 272 274 275 277 278 280 281 282 284 285 285 286 287 288 289 290 290 291 292 293 293 295 296 297 297 297 298 298 298 298 298 296 296 295 295 293 291 288 285
266 268 269 271 272 274 275 277 279 280 280 281 282 283 284 285 286 287 288 289 290 291 292 292 293 295 296 296 297 297 297 297 296 296 296 296 295 294 293 292 291 287 285
266 267 269 270 271 273 275 276 278 279 279 280 281 282 283 283 284 286 287 289 290 290 291 293 294 295 296 296 296 297 297 297 296 296 296 295 296 295 293 292 290 289 286
266 268 269 269 271 273 274 276 277 278 278 279 280 281 281 282 284 285 287 288 289 290 291 293 295 296 297 297 296 296 297 297 297 297 296 296 296 295 293 293 291 289 286
266 267 269 270 270 271 273 274 275 276 277 278 279 280 281 282 283 285 286 288 289 290 292 293 295 296 297 297 297 297 297 297 297 297 297 296 296 295 294 292 291 289 287
266 267 268 269 270 270 271 273 274 275 277 277 278 279 280 282 283 284 286 288 289 291 293 294 295 296 297 298 297 298 298 297 297 297 296 296 296 296 294 293 291 289 287
266 267 267 267 268 269 270 272 273 274 274 275 276 278 279 280 283 285 286 288 290 291 293 294 296 297 298 298 299 299 299 298 298 297 297 296 296 296 295 294 292 289 288
266 266 266 266 266 267 268 269 271 272 273 274 275 277 279 280 283 284 286 288 290 292 294 296 297 298 299 299 300 300 300 299 298 298 297 297 297 296 295 294 293 291 288
264 264 264 265 266 267 268 269 269 271 272 273 275 277 278 280 283 285 287 289 291 293 295 296 298 299 300 300 300 300 300 300 299 299 298 298 298 297 296 295 293 291 289
263 263 264 265 265 265 266 267 269 270 271 273 274 276 278 281 283 285 287 289 291 293 295 297 299 300 300 301 301 301 301 301 301 300 299 299 299 298 297 296 294 292 291
262 262 263 263 264 265 266 267 268 270 271 272 274 277 280 282 284 286 288 290 292 295 296 298 299 300 300 301 302 303 303 303 303 302 301 301 300 300 299 297 295 294 292
Height
5874 5874 5874 5874 5873 5872 5871 5870 5869 5867 5865 5864 5861 5859 5857 5855 5852 5849 5847 5844 5841 5838 5835 5832 5829 5827 5824 5821 5818 5815 5813 5810 5807 5805 5803 5801 5799 5797 5795 5794 5793 5792 5791
5870 5870 5869 5869 5869 5868 5867 5865 5864 5862 5861 5859 5857 5854 5852 5849 5847 5844 5841 5838 5835 5832 5829 5826 5823 5820 5817 5814 5811 5808 5805 5803 5800 5798 5795 5793 5791 5789 5788 5786 5785 5784 5783
5865 5864 5864 5864 5863 5863 5861 5860 5859 5857 5855 5853 5851 5849 5846 5844 5841 5838 5835 5832 5828 5825 5822 5819 5816 5813 5810 5807 5804 5801 5798 5795 5792 5790 5787 5785 5783 5781 5780 5778 5777 5776 5776
5859 5859 5859 5858 5858 5857 5856 5854 5853 5851 5849 5847 5845 5843 5840 5837 5834 5831 5828 5824 5821 5818 5815 5812 5809 5806 5803 5800 5796 5793 5790 5787 5784 5781 5779 5777 5775 5773 5771 5770 5769 5768 5767
5852 5853 5852 5852 5851 5850 5849 5848 5847 5845 5843 5841 5839 5836 5833 5830 5827 5824 5820 5817 5813 5810 5807 5804 5801 5798 5795 5792 5788 5785 5782 5779 5776 5773 5770 5768 5766 5764 5762 5760 5759 5758 5758
5846 5846 5845 5845 5844 5844 5842 5841 5840 5838 5836 5834 5832 5829 5826 5823 5820 5816 5812 5809 5805 5802 5799 5796 5793 5789 5786 5783 5780 5777 5774 5770 5767 5764 5762 5759 5757 5754 5752 5750 5749 5749 5748
5838 5838 5838 5838 5837 5836 5835 5834 5832 5831 5829 5826 5824 5822 5819 5815 5812 5808 5804 5801 5797 5794 5790 5787 5784 5781 5778 5774 5771 5768 5765 5761 5758 5755 5752 5749 5747 5744 5742 5740 5738 5737 5737
5830 5830 5830 5830 5829 5828 5827 5826 5824 5823 5821 5818 5816 5813 5811 5809 5805 5800 5795 5792 5788 5785 5781 5778 5775 5772 5768 5765 5762 5759 5755 5752 5749 5745 5742 5739 5736 5733 5731 5729 5727 5726 5725
5821 5822 5822 5821 5821 5820 5819 5817 5816 5814 5813 5810 5807 5804 5802 5800 5797 5794 5788 5783 5779 5776 5772 5769 5766 5762 5759 5756 5753 5749 5746 5742 5739 5735 5732 5728 5725 5722 5719 5717 5715 5714 5713
5812 5813 5813 5812 5812 5811 5810 5809 5807 5805 5803 5801 5798 5795 5792 5789 5786 5785 5781 5776 5771 5767 5763 5760 5756 5753 5750 5746 5743 5739 5736 5732 5729 5725 5721 5718 5714 5711 5707 5705 5703 5702 5700
5803 5803 5803 5803 5802 5802 5801 5799 5798 5796 5794 5791 5789 5786 5783 5780 5776 5774 5771 5768 5763 5759 5755 5751 5747 5744 5740 5737 5733 5730 5726 5722 5718 5715 5711 5708 5704 5701 5697 5694 5692 5690 5689
5793 5793 5793 5793 5792 5792 5791 5790 5788 5786 5784 5782 5779 5776 5774 5771 5767 5764 5761 5757 5754 5750 5746 5742 5738 5735 5731 5727 5724 5720 5716 5712 5709 5705 5701 5698 5694 5691 5687 5684 5682 5680 5679
5783 5783 5783 5783 5782 5781 5780 5779 5778 5776 5774 5772 5769 5766 5763 5760 5757 5754 5751 5747 5744 5741 5737 5733 5729 5725 5722 5718 5714 5711 5707 5703 5699 5695 5692 5688 5685 5682 5678 5676 5673 5671 5669
5772 5772 5772 5772 5771 5770 5770 5768 5767 5765 5763 5761 5759 5756 5753 5750 5747 5744 5741 5738 5734 5731 5727 5724 5720 5716 5712 5709 5705 5701 5698 5694 5690 5687 5683 5680 5676 5673 5670 5667 5664 5662 5661
5761 5761 5761 5761 5760 5759 5758 5757 5756 5754 5752 5750 5748 5746 5743 5740 5737 5734 5731 5728 5725 5722 5719 5715 5711 5707 5703 5700 5696 5692 5689 5685 5682 5678 5674 5671 5668 5665 5662 5659 5657 5654 5653
5749 5749 5749 5749 5749 5748 5747 5746 5745 5743 5741 5740 5737 5735 5733 5730 5727 5724 5721 5718 5715 5712 5709 5706 5702 5698 5695 5691 5687 5684 5680 5677 5673 5670 5667 5663 5660 5657 5654 5651 5649 5647 5645
5738 5738 5738 5738 5737 5737 5736 5735 5734 5732 5731 5729 5727 5725 5722 5720 5717 5714 5712 5709 5706 5703 5700 5697 5693 5690 5686 5682 5679 5675 5672 5668 5665 5662 5659 5655 5652 5649 5646 5643 5641 5639 5637
5726 5726 5726 5726 5726 5725 5725 5724 5723 5721 5720 5718 5716 5714 5712 5710 5707 5705 5702 5699 5696 5694 5691 5688 5685 5681 5677 5674 5670 5667 5663 5660 5657 5654 5650 5647 5644 5641 5638 5635 5633 5631 5628
5715 5715 5715 5715 5715 5714 5714 5713 5712 5710 5709 5707 5706 5704 5702 5700 5698 5695 5693 5690 5687 5685 5682 5679 5676 5672 5669 5665 5662 5658 5655 5651 5648 5645 5642 5639 5636 5632 5629 5626 5624 5621 5619
5703 5703 5703 5703 5703 5703 5703 5702 5701 5700 5698 5697 5696 5694 5692 5690 5688 5686 5684 5681 5679 5676 5673 5670 5667 5664 5660 5657 5653 5650 5646 5643 5639 5636 5633 5630 5626 5623 5620 5617 5614 5611 5609
5692 5692 5692 5692 5692 5692 5691 5691 5690 5689 5688 5687 5686 5684 5683 5681 5679 5677 5675 5672 5670 5667 5664 5661 5658 5655 5652 5648 5644 5641 5637 5634 5630 5627 5623 5620 5616 5613 5609 5606 5603 5599 5596
5680 5681 5681 5681 5681 5681 5681 5681 5680 5679 5678 5677 5676 5675 5673 5672 5670 5668 5666 5663 5661 5658 5656 5653 5650 5646 5643 5639 5635 5632 5628 5624 5621 5617 5613 5609 5606 5602 5598 5594 5591 5587 5584
5670 5670 5670 5671 5671 5671 5671 5671 5670 5670 5669 5668 5667 5666 5664 5663 5661 5659 5657 5655 5652 5650 5647 5644 5641 5637 5634 5630 5626 5622 5618 5614 5610 5606 5602 5598 5594 5590 5585 5581 5577 5573 5570
5660 5660 5661 5661 5661 5661 5661 5661 5661 5660 5660 5659 5658 5657 5656 5654 5652 5650 5648 5646 5644 5641 5638 5635 5632 5628 5624 5620 5617 5613 5608 5604 5599 5595 5590 5586 5581 5577 5572 5567 5563 5559 5555
5651 5651 5651 5652 5652 5652 5652 5652 5652 5651 5651 5650 5649 5648 5647 5645 5644 5642 5640 5638 5635 5632 5629 5626 5623 5619 5615 5611 5607 5602 5598 5593 5588 5583 5578 5573 5568 5563 5558 5553 5549 5545 5541
5642 5642 5643 5643 5643 5643 5643 5643 5643 5643 5642 5642 5641 5640 5638 5637 5635 5633 5631 5629 5626 5624 5620 5617 5613 5609 5605 5601 5596 5592 5587 5582 5576 5571 5566 5560 5555 5549 5544 5538 5534 5530 5525